Tracking 30995 objects as of 5-Jul-2025
HD Live streaming from Space Station
objects crossing your sky now

COSMOS 970 DEB

Track COSMOS 970 DEB now!
10-day predictions


NORAD ID: 10884
Int'l Code: 1977-121AF
Perigee: 839.8 km
Apogee: 1,117.7 km
Inclination: 66.4 °
Period: 104.5 minutes
Semi major axis: 7349 km
RCS: 0.1338 m2 (medium)
Launch date: December 21, 1977
Source: Commonwealth of Independent States (former USSR) (CIS)
Launch site: TYURATAM MISSILE AND SPACE COMPLEX (TTMTR)

Note: This is SATELLITE DEBRIS
Your satellite tracking list
Your tracking list is empty




NASA's NSSDC Master Catalog

Two Line Element Set (TLE):
1 10884U 77121AF  25186.24485667  .00000218  00000-0  25767-3 0  9994
2 10884  66.3873 131.5089 0189059 129.4233 232.3743 13.77827877384218
Source of the keplerian elements: AFSPC